Auburn, AL

12:51 AM CDT on April 24, 2018 (GMT -0500)
Auburn-opelika-pitts

Weather History for KAUO - February, 2014

Change the Weather History Date:

Monday, February 10, 2014

  Actual Average Record
Temperature  
Mean Temperature 48 °F -  
Max Temperature 57 °F - 78 °F (1965)
Min Temperature 39 °F - 9 °F (1971)
Degree Days  
Heating Degree Days 17    
Month to date heating degree days 175  
Since 1 July heating degree days 1934  
Moisture  
Dew Point 40 °F    
Average Humidity 73    
Maximum Humidity 93    
Minimum Humidity 58    
Precipitation  
Precipitation 0.01 in - 1.77 in (2001)
Month to date precipitation 1.21  
Year to date precipitation 2.81  
Sea Level Pressure  
Sea Level Pressure 30.09 in    
Wind  
Wind Speed 6 mph (NNW)    
Max Wind Speed 14 mph    
Max Gust Speed 17 mph    
Visibility 10 miles    
Events      
T = Trace of Precipitation, MM = Missing Value Source: NWS Daily Summary

Daily Weather History Graph

Daily Weather History Graph

Search for Another Location

Airport or City:

Astronomy

Feb. 10, 2014 Rise Set
Actual Time 6:29 AM CST 5:23 PM CST
Civil Twilight 6:03 AM CST 5:48 PM CST
Nautical Twilight 5:34 AM CST 6:17 PM CST
Astronomical Twilight 5:06 AM CST 6:46 PM CST
Moon 1:56 PM CST (2/10) 3:16 AM CST (2/10)
Length of Visible Light 11h 44m
Length of Day
10h 53m
Waxing Gibbous, 85% of the Moon is Illuminated
Feb 10
Waxing Gibbous
Feb 14
Full
Feb 22
Last Quarter
Mar 1
New
Mar 8
First Quarter

Hourly Weather History & Observations

Time (CST) Temp. Windchill Dew Point Humidity Pressure Visibility Wind Dir Wind Speed Gust Speed Precip Events Conditions
12:15 AM 44.6 °F - 37.4 °F 76% 30.08 in 10.0 mi Calm Calm - N/A   Clear
12:35 AM 44.6 °F - 37.4 °F 76% 30.07 in 10.0 mi Calm Calm - N/A   Clear
12:55 AM 42.8 °F - 35.6 °F 76% 30.07 in 10.0 mi Calm Calm - N/A   Clear
1:15 AM 42.8 °F - 37.4 °F 81% 30.07 in 10.0 mi Calm Calm - N/A   Clear
1:35 AM 42.8 °F - 37.4 °F 81% 30.07 in 10.0 mi Calm Calm - N/A   Clear
1:55 AM 42.8 °F - 37.4 °F 81% 30.07 in 10.0 mi Calm Calm - N/A   Clear
2:15 AM 42.8 °F - 37.4 °F 81% 30.07 in 10.0 mi Calm Calm - N/A   Mostly Cloudy
2:35 AM 44.6 °F - 39.2 °F 81% 30.07 in 10.0 mi Calm Calm - N/A   Overcast
2:55 AM 44.6 °F - 39.2 °F 81% 30.07 in 10.0 mi Calm Calm - N/A   Overcast
3:15 AM 44.6 °F - 39.2 °F 81% 30.08 in 10.0 mi Calm Calm - N/A   Overcast
3:35 AM 44.6 °F - 39.2 °F 81% 30.08 in 10.0 mi Calm Calm - N/A   Overcast
3:55 AM 44.6 °F - 39.2 °F 81% 30.08 in 10.0 mi Calm Calm - N/A   Overcast
4:15 AM 44.6 °F - 39.2 °F 81% 30.09 in 10.0 mi Calm Calm - N/A   Overcast
4:35 AM 44.6 °F 43.1 °F 39.2 °F 81% 30.09 in 10.0 mi North 3.5 mph - N/A   Overcast
4:55 AM 44.6 °F - 39.2 °F 81% 30.08 in 10.0 mi Calm Calm - N/A   Overcast
5:15 AM 44.6 °F 43.1 °F 39.2 °F 81% 30.08 in 10.0 mi NNE 3.5 mph - N/A   Mostly Cloudy
5:35 AM 44.6 °F 41.4 °F 39.2 °F 81% 30.09 in 10.0 mi ENE 5.8 mph - N/A   Overcast
5:55 AM 44.6 °F 42.2 °F 37.4 °F 76% 30.08 in 10.0 mi ENE 4.6 mph - N/A   Mostly Cloudy
6:15 AM 44.6 °F 42.2 °F 37.4 °F 76% 30.09 in 10.0 mi ENE 4.6 mph - N/A   Mostly Cloudy
6:35 AM 44.6 °F 42.2 °F 37.4 °F 76% 30.09 in 10.0 mi ENE 4.6 mph - N/A   Overcast
6:55 AM 44.6 °F 41.4 °F 37.4 °F 76% 30.09 in 10.0 mi NE 5.8 mph - N/A   Overcast
7:15 AM 44.6 °F 43.1 °F 37.4 °F 76% 30.09 in 10.0 mi ENE 3.5 mph - N/A   Overcast
7:35 AM 44.6 °F 42.2 °F 37.4 °F 76% 30.09 in 10.0 mi East 4.6 mph - N/A   Overcast
7:55 AM 46.4 °F - 37.4 °F 71% 30.10 in 10.0 mi Calm Calm - N/A   Overcast
8:15 AM 46.4 °F - 37.4 °F 71% 30.10 in 10.0 mi Calm Calm - N/A   Overcast
8:35 AM 48.2 °F - 39.2 °F 71% 30.11 in 10.0 mi SSW 3.5 mph - N/A   Overcast
8:55 AM 48.2 °F - 39.2 °F 71% 30.12 in 10.0 mi SSW 5.8 mph - N/A   Overcast
9:15 AM 50.0 °F - 39.2 °F 66% 30.12 in 10.0 mi SSW 6.9 mph - N/A   Overcast
9:35 AM 51.8 °F - 42.8 °F 71% 30.12 in 10.0 mi SW 6.9 mph - N/A   Overcast
9:55 AM 51.8 °F - 42.8 °F 71% 30.12 in 10.0 mi SW 6.9 mph - N/A   Overcast
10:15 AM 51.8 °F - 44.6 °F 76% 30.12 in 10.0 mi WSW 6.9 mph - N/A   Overcast
10:35 AM 51.8 °F - 44.6 °F 76% 30.12 in 10.0 mi West 5.8 mph - N/A   Overcast
10:55 AM 53.6 °F - 44.6 °F 72% 30.12 in 10.0 mi West 8.1 mph - N/A   Overcast
11:15 AM 53.6 °F - 44.6 °F 72% 30.11 in 10.0 mi WNW 10.4 mph - N/A   Overcast
11:35 AM 55.4 °F - 44.6 °F 67% 30.11 in 10.0 mi WNW 8.1 mph - N/A   Overcast
11:55 AM 55.4 °F - 44.6 °F 67% 30.10 in 10.0 mi West 11.5 mph - N/A   Mostly Cloudy
12:15 PM 55.4 °F - 44.6 °F 67% 30.09 in 10.0 mi NW 9.2 mph - N/A   Mostly Cloudy
12:35 PM 55.4 °F - 44.6 °F 67% 30.08 in 10.0 mi NNW 6.9 mph - N/A   Scattered Clouds
12:55 PM 57.2 °F - 44.6 °F 63% 30.07 in 10.0 mi WNW 5.8 mph - N/A   Partly Cloudy
1:15 PM 57.2 °F - 44.6 °F 63% 30.07 in 10.0 mi WNW 8.1 mph - N/A   Partly Cloudy
1:35 PM 57.2 °F - 42.8 °F 59% 30.06 in 10.0 mi West 8.1 mph - N/A   Clear
1:55 PM 57.2 °F - 42.8 °F 59% 30.05 in 10.0 mi West 3.5 mph - N/A   Clear
2:15 PM 57.2 °F - 42.8 °F 59% 30.05 in 10.0 mi West 6.9 mph - N/A   Clear
2:35 PM 57.2 °F - 42.8 °F 59% 30.06 in 10.0 mi WNW 4.6 mph - N/A   Mostly Cloudy
2:55 PM 57.2 °F - 42.8 °F 59% 30.06 in 10.0 mi WNW 5.8 mph - N/A   Scattered Clouds
3:15 PM 57.2 °F - 42.8 °F 59% 30.06 in 10.0 mi NNW 5.8 mph - N/A   Mostly Cloudy
3:35 PM 55.4 °F - 42.8 °F 63% 30.06 in 10.0 mi NNW 8.1 mph - N/A   Overcast
3:55 PM 55.4 °F - 42.8 °F 63% 30.06 in 10.0 mi NNW 9.2 mph - N/A   Overcast
4:15 PM 55.4 °F - 42.8 °F 63% 30.06 in 10.0 mi NNW 6.9 mph - N/A   Overcast
4:35 PM 55.4 °F - 41.0 °F 58% 30.07 in 10.0 mi NNW 6.9 mph - N/A   Overcast
4:55 PM 53.6 °F - 41.0 °F 62% 30.08 in 10.0 mi NNW 6.9 mph - N/A   Mostly Cloudy
5:15 PM 53.6 °F - 41.0 °F 62% 30.09 in 10.0 mi NW 10.4 mph - N/A   Overcast
5:35 PM 53.6 °F - 41.0 °F 62% 30.09 in 10.0 mi NNW 11.5 mph - N/A   Mostly Cloudy
5:55 PM 51.8 °F - 39.2 °F 62% 30.10 in 10.0 mi North 13.8 mph 17.3 mph N/A   Mostly Cloudy
6:15 PM 50.0 °F - 39.2 °F 66% 30.11 in 10.0 mi North 9.2 mph - N/A   Overcast
6:35 PM 48.2 °F - 39.2 °F 71% 30.11 in 10.0 mi North 11.5 mph - N/A   Mostly Cloudy
6:55 PM 48.2 °F - 39.2 °F 71% 30.12 in 10.0 mi North 6.9 mph - N/A   Overcast
7:15 PM 46.4 °F 42.4 °F 37.4 °F 71% 30.12 in 10.0 mi North 8.1 mph - N/A   Mostly Cloudy
7:35 PM 46.4 °F 41.9 °F 37.4 °F 71% 30.12 in 10.0 mi North 9.2 mph - N/A   Overcast
7:55 PM 46.4 °F 40.7 °F 37.4 °F 71% 30.13 in 10.0 mi North 12.7 mph - N/A   Mostly Cloudy
8:15 PM 44.6 °F 39.7 °F 37.4 °F 76% 30.13 in 10.0 mi North 9.2 mph - N/A   Mostly Cloudy
8:35 PM 44.6 °F 39.7 °F 37.4 °F 76% 30.13 in 10.0 mi North 9.2 mph - N/A   Mostly Cloudy
8:55 PM 44.6 °F 38.8 °F 37.4 °F 76% 30.13 in 10.0 mi North 11.5 mph - N/A   Mostly Cloudy
9:15 PM 42.8 °F 37.0 °F 35.6 °F 76% 30.12 in 10.0 mi NNE 10.4 mph - N/A   Mostly Cloudy
9:35 PM 42.8 °F 37.5 °F 35.6 °F 76% 30.13 in 10.0 mi NNE 9.2 mph - N/A   Mostly Cloudy
9:55 PM 42.8 °F 37.0 °F 35.6 °F 76% 30.12 in 10.0 mi NNE 10.4 mph 16.1 mph N/A   Overcast
10:15 PM 41.0 °F 36.4 °F 35.6 °F 81% 30.12 in 10.0 mi NNE 6.9 mph - N/A   Overcast
10:35 PM 41.0 °F 35.2 °F 35.6 °F 81% 30.12 in 9.0 mi NNE 9.2 mph 17.3 mph N/A   Overcast
10:55 PM 39.2 °F 32.5 °F 35.6 °F 87% 30.11 in 7.0 mi NNE 10.4 mph 16.1 mph N/A   Overcast
11:15 PM 39.2 °F 32.5 °F 35.6 °F 87% 30.12 in 7.0 mi North 10.4 mph - N/A   Overcast
11:35 PM 39.2 °F 32.5 °F 35.6 °F 87% 30.12 in 7.0 mi NNE 10.4 mph - 0.01 in   Overcast
11:55 PM 37.4 °F 31.4 °F 35.6 °F 93% 30.11 in 5.0 mi NNE 8.1 mph - 0.01 in   Overcast